STARLINK-2640 (48438 NORAD) Tracking and Keplerian Element Data

This shows tracking and keplerian element data for the satellite.

Feedback or suggestion? Click here.




ElementValue
Catalog48438
NameSTARLINK-2640
Epoch Orbit366
Epoch Day210.91668981
Epoch Year2021
RAAN180.9774
Inclination53.0501
Eccentricity0.0001239
Argument of Perigee88.7868
Mean Anonmoly242.5124
Mean Motion15.25142677
Decay Rate-0.01064667
L11 48438U 21040L 21210.91668981 -.01064667 00000-0 -45768-1 0 9991
L22 48438 53.0501 180.9774 0001239 88.7868 242.5124 15.25142677 3664

Live tracking and technical data element details for STARLINK-2640 (NORAD 48438). STARLINK-2640 can be tracked NOW for your location showing map with azimuth and elevation plus other details from your city location.

Track the satellite on the map from your city or location and see movement details for azimuth, elevation, latitude, longitude, range, height, and movement on the map or in text.







IsCatalogInMostPopularTable: catalog: 48438, numindb: 28
Update: records affected: 1



GetName: 48438 STARLINK-2640

Hit Count: updated at: Sat, 31 Jul 2021 14:21:13 GMT